Hilton Head Island, SC

7:41 PM EDT on August 31, 2016 (GMT -0400)
Hilton Head

Weather History for KHXD - January, 2014

Change the Weather History Date:

Friday, January 10, 2014

  Actual Average Record
Temperature  
Mean Temperature 61 °F -  
Max Temperature 69 °F 57 °F 62 °F (2016)
Min Temperature 53 °F 40 °F 39 °F (2015)
Degree Days  
Heating Degree Days 4    
Growing Degree Days 11 (Base 50)    
Moisture  
Dew Point 59 °F    
Average Humidity 96    
Maximum Humidity 100    
Minimum Humidity 83    
Precipitation  
Precipitation 0.00 in - - ()
Sea Level Pressure  
Sea Level Pressure 30.21 in    
Wind  
Wind Speed 4 mph (East)    
Max Wind Speed 9 mph    
Max Gust Speed -    
Visibility 5 miles    
Events Fog , Rain    
Averages and records for this station are not official NWS values.
T = Trace of Precipitation, MM = Missing Value Source: NWS Daily Summary

Daily Weather History Graph

Daily Weather History Graph

Search for Another Location

Airport or City:

Trip Planner

Search our weather history database for the weather conditions in past years. The results will help you decide how hot, cold, wet, or windy it might be!

Date:

Astronomy

Jan. 10, 2014 Rise Set
Actual Time 7:24 AM EST 5:36 PM EST
Civil Twilight 6:57 AM EST 6:02 PM EST
Nautical Twilight 6:27 AM EST 6:33 PM EST
Astronomical Twilight 5:58 AM EST 7:02 PM EST
Moon 1:34 PM EST (1/10) 2:36 AM EST (1/10)
Length of Visible Light 11h 05m
Length of Day
10h 11m
Waxing Gibbous, 75% of the Moon is Illuminated
Jan 10
Waxing Gibbous
Jan 15
Full
Jan 24
Last Quarter
Jan 30
New
Feb 6
First Quarter

Hourly Weather History & Observations

Time (EST) Temp. Dew Point Humidity Pressure Visibility Wind Dir Wind Speed Gust Speed Precip Events Conditions
12:15 AM 55.4 °F 53.6 °F 94% 30.35 in 7.0 mi North 6.9 mph - 0.00 in   Mostly Cloudy
12:35 AM 55.4 °F 53.6 °F 94% 30.33 in 7.0 mi NNE 5.8 mph - 0.00 in   Scattered Clouds
12:55 AM 55.4 °F 55.4 °F 100% 30.32 in 7.0 mi NNE 8.1 mph - 0.00 in   Mostly Cloudy
1:15 AM 55.4 °F 55.4 °F 100% 30.31 in 6.0 mi NNE 9.2 mph - 0.00 in   Scattered Clouds
1:35 AM 55.4 °F 55.4 °F 100% 30.31 in 5.0 mi NE 6.9 mph - 0.00 in Rain Light Rain
1:55 AM 55.4 °F 53.6 °F 94% 30.30 in 3.0 mi NE 9.2 mph - 0.00 in Rain Light Rain
2:15 AM 55.4 °F 53.6 °F 94% 30.30 in 4.0 mi NNE 6.9 mph - 0.00 in   Mostly Cloudy
2:35 AM 55.4 °F 53.6 °F 94% 30.30 in 4.0 mi NE 4.6 mph - 0.00 in   Mostly Cloudy
2:55 AM 55.4 °F 53.6 °F 94% 30.29 in 3.0 mi NE 3.5 mph - 0.00 in   Mostly Cloudy
3:15 AM 55.4 °F 55.4 °F 100% 30.28 in 3.0 mi Calm Calm - 0.00 in   Mostly Cloudy
3:35 AM 55.4 °F 55.4 °F 100% 30.28 in 3.0 mi NE 4.6 mph - 0.00 in   Mostly Cloudy
3:55 AM 55.4 °F 55.4 °F 100% 30.27 in 3.0 mi NNE 4.6 mph - 0.00 in   Mostly Cloudy
4:15 AM 55.4 °F 55.4 °F 100% 30.26 in 2.5 mi Calm Calm - 0.00 in   Overcast
4:35 AM 57.2 °F 55.4 °F 94% 30.25 in 3.0 mi Calm Calm - 0.00 in   Overcast
4:55 AM 55.4 °F 55.4 °F 100% 30.25 in 2.5 mi Calm Calm - 0.00 in   Mostly Cloudy
5:15 AM 57.2 °F 55.4 °F 94% 30.25 in 2.5 mi Calm Calm - 0.00 in   Mostly Cloudy
5:35 AM 55.4 °F 55.4 °F 100% 30.24 in 1.8 mi Calm Calm - 0.00 in   Mostly Cloudy
6:50 AM 53.6 °F 53.6 °F 100% 30.25 in 0.5 mi Calm Calm - N/A Fog Fog
7:50 AM 53.6 °F 53.6 °F 100% 30.26 in 0.5 mi Calm Calm - N/A Fog Fog
8:25 AM 53.6 °F 53.6 °F 100% 30.26 in 3.0 mi Calm Calm - N/A   Mostly Cloudy
8:50 AM 55.4 °F 55.4 °F 100% 30.27 in 5.0 mi Calm Calm - N/A   Scattered Clouds
9:50 AM 60.8 °F 60.8 °F 100% 30.28 in 5.0 mi Calm Calm - N/A   Scattered Clouds
10:50 AM 66.2 °F 64.4 °F 94% 30.26 in 5.0 mi Calm Calm - N/A   Overcast
11:50 AM 69.8 °F 64.4 °F 83% 30.22 in 6.0 mi ESE 4.6 mph - N/A   Overcast
12:50 PM 68.0 °F 64.4 °F 88% 30.18 in 5.0 mi SSE 5.8 mph - N/A   Mostly Cloudy
1:50 PM 69.8 °F 64.4 °F 83% 30.16 in 8.0 mi South 5.8 mph - N/A   Scattered Clouds
2:30 PM 66.2 °F 64.4 °F 94% 30.15 in 6.0 mi South 5.8 mph - N/A   Overcast
2:50 PM 64.4 °F 62.6 °F 94% 30.15 in 8.0 mi SSE 4.6 mph - N/A   Scattered Clouds
3:50 PM 64.4 °F 60.8 °F 88% 30.14 in 7.0 mi SE 3.5 mph - N/A   Mostly Cloudy
4:50 PM 64.4 °F 60.8 °F 88% 30.14 in 6.0 mi Calm Calm - N/A   Light Drizzle
5:50 PM 62.6 °F 59.0 °F 88% 30.14 in 8.0 mi Calm Calm - N/A   Overcast
6:50 PM 64.4 °F 60.8 °F 88% 30.14 in 10.0 mi SSE 6.9 mph - N/A   Overcast
7:50 PM 64.4 °F 60.8 °F 88% 30.14 in 10.0 mi SE 5.8 mph - N/A   Overcast
8:15 PM 64.4 °F 62.6 °F 94% 30.14 in 10.0 mi ESE 4.6 mph - 0.00 in   Mostly Cloudy
8:35 PM 64.4 °F 62.6 °F 94% 30.13 in 8.0 mi East 4.6 mph - 0.00 in   Scattered Clouds
8:55 PM 64.4 °F 64.4 °F 100% 30.13 in 8.0 mi SE 4.6 mph - 0.00 in   Mostly Cloudy
9:15 PM 64.4 °F 62.6 °F 94% 30.12 in 8.0 mi ESE 3.5 mph - 0.00 in   Mostly Cloudy
9:35 PM 64.4 °F 62.6 °F 94% 30.12 in 7.0 mi Calm Calm - 0.00 in   Mostly Cloudy
9:55 PM 62.6 °F 62.6 °F 100% 30.11 in 5.0 mi East 3.5 mph - 0.00 in   Mostly Cloudy
10:15 PM 62.6 °F 62.6 °F 100% 30.11 in 4.0 mi ENE 3.5 mph - 0.00 in   Overcast
10:35 PM 60.8 °F 60.8 °F 100% 30.11 in 1.5 mi SE 3.5 mph - 0.00 in   Overcast
10:55 PM 60.8 °F 60.8 °F 100% 30.11 in 2.5 mi Calm Calm - 0.00 in   Overcast
11:15 PM 60.8 °F 60.8 °F 100% 30.10 in 1.5 mi Calm Calm - 0.00 in   Overcast
11:35 PM 60.8 °F 60.8 °F 100% 30.10 in 1.0 mi SSE 4.6 mph - 0.00 in   Overcast
11:55 PM 60.8 °F 60.8 °F 100% 30.09 in 0.5 mi South 3.5 mph - 0.00 in Fog Fog